DW7680 Weather Reports


Display with metric or nautical units.
time (UTC)temp
F
wind
direction
speed
MPH
gust
MPH
rain 1hr
in
rain 24hr
in
rain mn
in
humidity
%
barometer
mb
20260508204502 73 28 3.0 10.0 0.00 0.00 0.00 15 1010.0
20260508203002 70 95 7.0 15.0 0.00 0.00 0.00 16 1010.4
20260508201500 70 101 2.0 11.0 0.00 0.00 0.00 16 1010.4
20260508200006 71 242 3.0 22.0 0.00 0.00 0.00 16 1010.7
20260508194501 72 182 4.0 12.0 0.00 0.00 0.00 15 1010.7
20260508193001 73 135 9.0 20.0 0.00 0.00 0.00 16 1010.8
20260508191502 71 126 3.0 11.0 0.00 0.00 0.00 15 1010.9
20260508190003 72 123 4.0 10.0 0.00 0.00 0.00 16 1011.0
20260508184502 70 82 4.0 11.0 0.00 0.00 0.00 17 1011.3
20260508183002 71 71 5.0 16.0 0.00 0.00 0.00 16 1011.5
20260508181509 70 123 5.0 16.0 0.00 0.00 0.00 16 1011.7
20260508180002 70 79 3.0 14.0 0.00 0.00 0.00 16 1011.7
20260508174502 69 74 8.0 16.0 0.00 0.00 0.00 16 1011.9
20260508173002 69 49 3.0 20.0 0.00 0.00 0.00 17 1012.2
20260508171503 69 97 10.0 16.0 0.00 0.00 0.00 16 1012.4
20260508170007 69 32 7.0 15.0 0.00 0.00 0.00 17 1012.7
20260508164503 68 71 7.0 15.0 0.00 0.00 0.00 16 1012.9
20260508163100 68 140 5.0 13.0 0.00 0.00 0.00 17 1012.9
20260508161602 68 67 5.0 13.0 0.00 0.00 0.00 18 1012.8
20260508160004 66 42 5.0 15.0 0.00 0.00 0.00 18 1013.3
20260508154502 66 121 4.0 12.0 0.00 0.00 0.00 18 1013.4
20260508153002 66 149 4.0 12.0 0.00 0.00 0.00 19 1013.5
20260508151602 65 130 1.0 9.0 0.00 0.00 0.00 19 1013.6
20260508150110 64 146 2.0 8.0 0.00 0.00 0.00 19 1013.9
20260508150008 64 182 3.0 8.0 0.00 0.00 0.00 20 1013.9
20260508144606 63 81 1.0 4.0 0.00 0.00 0.00 22 1014.0
20260508144505 62 81 1.0 4.0 0.00 0.00 0.00 22 1013.9
20260508143134 59 259 1.0 4.0 0.00 0.00 0.00 30 1014.2
20260508141607 56 234 1.0 4.0 0.00 0.00 0.00 35 1014.3
20260508140121 52 263 2.0 7.0 0.00 0.00 0.00 39 1014.4
20260508134601 49 279 4.0 9.0 0.00 0.00 0.00 42 1014.3
20260508133109 46 251 4.0 8.0 0.00 0.00 0.00 45 1014.5
20260508131605 44 360 5.0 12.0 0.00 0.00 0.00 47 1014.3
20260508124600 40 283 5.0 9.0 0.00 0.00 0.00 51 1014.3
20260508123100 40 267 5.0 12.0 0.00 0.00 0.00 53 1014.1
20260508121602 40 276 5.0 11.0 0.00 0.00 0.00 53 1014.1
20260508120105 40 281 4.0 8.0 0.00 0.00 0.00 53 1014.0
20260508120002 40 281 4.0 8.0 0.00 0.00 0.00 53 1014.0
20260508114501 39 263 5.0 9.0 0.00 0.00 0.00 53 1013.9
20260508113101 39 273 4.0 8.0 0.00 0.00 0.00 53 1014.0
20260508113003 39 266 4.0 8.0 0.00 0.00 0.00 53 1014.0
20260508111503 40 291 4.0 8.0 0.00 0.00 0.00 52 1014.3
20260508110003 40 271 5.0 10.0 0.00 0.00 0.00 52 1014.4
20260508104613 40 273 4.0 8.0 0.00 0.00 0.00 51 1014.5
20260508103103 41 288 4.0 9.0 0.00 0.00 0.00 50 1014.5
20260508101600 42 273 4.0 9.0 0.00 0.00 0.00 48 1014.5
20260508100100 43 263 3.0 8.0 0.00 0.00 0.00 47 1014.6
20260508094559 43 313 3.0 7.0 0.00 0.00 0.00 46 1014.7
20260508093059 44 293 2.0 7.0 0.00 0.00 0.00 45 1014.7
20260508091609 43 284 2.0 8.0 0.00 0.00 0.00 46 1014.8
20260508090106 43 283 2.0 6.0 0.00 0.00 0.00 46 1014.9
20260508084615 42 277 2.0 6.0 0.00 0.00 0.00 48 1015.1
20260508083108 41 266 3.0 6.0 0.00 0.00 0.00 49 1015.3
20260508081600 40 269 2.0 6.0 0.00 0.00 0.00 50 1015.3
20260508080111 39 286 1.0 4.0 0.00 0.00 0.00 51 1015.5
20260508080001 39 285 1.0 4.0 0.00 0.00 0.00 51 1015.6
20260508074619 40 301 0.0 3.0 0.00 0.00 0.00 50 1015.6
20260508073101 40 271 4.0 11.0 0.00 0.00 0.00 49 1015.4
20260508071558 40 266 5.0 9.0 0.00 0.00 0.00 49 1015.5
20260508070009 41 261 5.0 9.0 0.00 0.00 0.00 48 1015.9
20260508064510 40 267 2.0 7.0 0.00 0.00 0.00 48 1016.1
20260508063003 41 259 3.0 8.0 0.00 0.00 0.00 47 1015.8
20260508061503 41 294 6.0 9.0 0.00 0.00 0.00 47 1015.5
20260508060003 41 276 5.0 9.0 0.00 0.00 0.00 48 1015.6
20260508054501 41 260 4.0 8.0 0.00 0.00 0.00 48 1015.7
20260508053001 42 281 2.0 6.0 0.00 0.00 0.00 48 1016.0
20260508051501 42 267 4.0 7.0 0.00 0.00 0.00 46 1016.0
20260508050002 42 265 5.0 9.0 0.00 0.00 0.00 46 1016.1
20260508044502 42 263 3.0 8.0 0.00 0.00 0.00 46 1016.1
20260508043001 44 265 4.0 10.0 0.00 0.00 0.00 43 1016.2
20260508041504 45 256 3.0 8.0 0.00 0.00 0.00 42 1016.1
20260508040005 46 254 3.0 7.0 0.00 0.00 0.00 41 1016.1
20260508034502 47 252 2.0 6.0 0.00 0.00 0.00 39 1016.0
20260508033004 48 267 4.0 7.0 0.00 0.00 0.00 38 1015.8
20260508031506 49 267 3.0 6.0 0.00 0.00 0.00 37 1015.5
20260508030002 50 235 2.0 7.0 0.00 0.00 0.00 35 1015.3
20260508024501 52 317 2.0 5.0 0.00 0.00 0.00 32 1015.2
20260508023003 56 334 1.0 3.0 0.00 0.00 0.00 28 1015.0
20260508021502 58 334 0.0 2.0 0.00 0.00 0.00 34 1014.7
20260508020001 59 334 2.0 4.0 0.00 0.00 0.00 36 1014.6
20260508014502 60 313 2.0 7.0 0.00 0.00 0.00 24 1014.4
20260508013001 61 298 2.0 9.0 0.00 0.00 0.00 23 1014.1
20260508011502 62 263 2.0 6.0 0.00 0.00 0.00 24 1013.7
20260508010004 62 39 3.0 5.0 0.00 0.00 0.00 37 1013.8
20260508004502 64 82 4.0 9.0 0.00 0.00 0.00 35 1013.5
20260508003002 64 47 3.0 10.0 0.00 0.00 0.00 34 1013.4
20260508001503 64 63 6.0 10.0 0.00 0.00 0.00 36 1013.4
20260508000006 63 40 7.0 15.0 0.00 0.00 0.00 37 1013.4
20260507234502 64 93 7.0 14.0 0.00 0.00 0.00 37 1013.3
20260507233003 64 117 7.0 16.0 0.00 0.00 0.00 37 1013.5
20260507231502 64 113 6.0 15.0 0.00 0.00 0.00 36 1013.6
20260507230011 64 123 7.0 13.0 0.00 0.00 0.00 36 1013.6
20260507224502 64 75 7.0 17.0 0.00 0.00 0.00 37 1013.7
20260507223002 64 166 9.0 16.0 0.00 0.00 0.00 36 1013.6
20260507221501 64 111 7.0 16.0 0.00 0.00 0.00 36 1013.8
20260507220001 65 127 8.0 15.0 0.00 0.00 0.00 34 1014.1
20260507214501 65 102 11.0 16.0 0.00 0.00 0.00 34 1014.2
20260507213002 65 94 8.0 15.0 0.00 0.00 0.00 35 1014.5
20260507211502 64 84 8.0 17.0 0.00 0.00 0.00 35 1014.7
20260507210003 65 65 12.0 20.0 0.00 0.00 0.00 35 1014.9